[[{"header":{"parameterUnit":"m.s-1","parameterCategory":1,"la1":30.2991,"la2":30.254,"lo1":-89.0895,"lo2":-89.0444,"dy":0.0017,"dx":0.0017,"nx":28,"ny":28,"refTime":"2025-04-19T09:00:00:Z","depth":0,"parameterNumber":2,"parameterNumberName":"U-component_of_WINDS"},"data":[0,0,0,0,0,0,0,0,0,0,0,0,0,0,0,0,0,0,0,0,0,0,0,0,0,0,0,0,0,0,0,0,0,0,0,0,0,0,0,0,0,0,0,0,0,0,0,0,0,0,0,0,0,0,0,0,0,0,-5.4966,-5.4967,0,-5.5029,-5.503,-5.503,-5.4951,-5.4948,-5.4946,-5.4943,-5.5005,-5.5009,-5.5013,0,0,0,0,0,0,0,0,0,0,0,0,0,-5.4775,-5.4779,-5.4966,-5.4967,-5.4968,-5.5029,-5.503,-5.503,-5.4952,-5.4948,-5.4945,-5.4942,-5.5003,-5.5008,-5.5013,0,0,0,0,0,0,0,0,0,0,0,0,0,-5.485,-5.478,-5.4966,-5.4936,-5.4934,-5.5029,-5.503,-5.5031,-5.4953,-5.4948,-5.4944,-5.494,-5.5001,-5.5008,-5.5014,-5.5141,0,0,-5.5034,-5.5037,0,0,0,0,0,0,0,0,-5.4846,-5.4857,-5.4939,-5.4938,-5.4936,-5.4978,-5.4985,-5.5068,-5.4954,-5.4945,-5.4943,-5.4938,-5.4999,-5.5005,-5.5027,-5.5144,-5.5146,-5.5035,-5.5038,-5.5041,-5.5043,0,0,0,0,0,0,0,-5.484,-5.4854,-5.4991,-5.4941,-5.4939,-5.4918,-5.4924,-5.5,-5.4996,-5.4946,-5.494,-5.4949,-5.4997,-5.5021,-5.5027,-5.5147,-5.5034,-5.504,-5.5044,-5.5047,-5.5369,-5.5373,0,0,0,0,0,0,-5.4839,-5.485,-5.4989,-5.4993,-5.4879,-5.4925,-5.4932,-5.4969,-5.4995,-5.4994,-5.4952,-5.4945,-5.5012,-5.502,-5.5029,-5.5177,-5.5041,-5.5047,-5.5051,-5.5364,-5.537,-5.5375,0,0,0,0,0,0,-5.4835,-5.4852,-5.4986,-5.492,-5.4935,-5.4933,-5.4975,-5.4972,-5.4995,-5.5,-5.4998,-5.4977,-5.5008,-5.502,-5.5113,-5.5178,-5.505,-5.5056,-5.5359,-5.5366,-5.5372,-5.5475,0,0,0,0,0,0,-5.483,-5.4852,-5.49,-5.4922,-5.4939,-5.507,-5.4979,-5.4977,-5.5007,-5.4998,-5.5023,-5.5022,-5.5006,-5.5104,-5.512,-5.5185,-5.5061,-5.5353,-5.5362,-5.537,-5.5465,-5.5484,-5.55,0,0,0,0,0,-5.4824,-5.4927,-5.4903,-5.492,-5.5,-5.5074,-5.5084,-5.5064,-5.5013,-5.5061,-5.5064,-5.5022,-5.5169,-5.5114,-5.5131,-5.5199,-5.5348,-5.5359,-5.5369,-5.5457,-5.5481,-5.55,0,0,0,0,0,0,-5.4912,-5.4929,-5.4903,-5.5016,-5.5045,-5.5061,-5.5121,-5.5089,-5.5132,-5.5121,-5.5094,-5.51,-5.5199,-5.5209,-5.5147,-5.5322,-5.525,-5.5264,-5.5311,-5.5333,-5.535,-5.5345,-5.5067,0,0,0,0,0,-5.4945,-5.5005,-5.5016,-5.5114,-5.513,-5.5124,-5.5155,-5.5137,-5.5165,-5.5176,-5.5185,-5.5213,-5.5265,-5.53,-5.5349,-5.5467,-5.547,-5.5522,-5.554,-5.5554,-5.5566,-5.5627,-5.5649,-5.5409,-5.5409,-5.5409,0,0,-5.5013,-5.503,-5.5069,-5.5133,-5.5152,-5.5213,-5.5134,-5.5202,-5.5246,-5.5186,-5.5274,-5.5282,-5.5311,-5.5417,-5.5464,-5.5428,-5.5633,-5.5568,-5.5579,-5.5583,-5.564,-5.5663,-5.5683,-5.5416,-5.5415,-5.5414,0,0,-5.5167,-5.5187,-5.527,-5.5292,-5.5323,-5.5318,-5.5338,-5.536,-5.5363,-5.5451,-5.5406,-5.5459,-5.555,-5.5572,-5.5595,-5.5758,-5.572,-5.5775,-5.5865,-5.5924,-5.5943,-5.596,-5.6015,-5.6036,-5.5787,-5.5787,-5.5787,0,-5.5247,-5.5338,-5.5317,-5.5388,-5.5416,-5.5366,-5.5449,-5.547,-5.5516,-5.5536,-5.5496,-5.5608,-5.5625,-5.5733,-5.5773,-5.5795,-5.5815,-5.577,-5.5943,-5.5959,-5.5974,-5.6026,-5.6048,-5.5793,-5.5793,-5.5792,-5.5792,0,-5.5434,-5.5498,-5.5561,-5.5606,-5.5642,-5.5719,-5.5708,-5.5747,-5.5726,-5.5725,-5.5814,-5.5832,-5.5882,-5.5908,-5.5888,-5.6013,-5.599,-5.5947,-5.5874,-5.6004,-5.6052,-5.6072,-5.5802,-5.58,-5.5798,-5.5797,0,0,-5.5644,-5.5677,-5.57,-5.5719,-5.575,-5.5798,-5.5872,-5.5922,-5.5955,-5.5988,-5.6048,-5.6126,-5.6086,-5.6113,-5.6095,-5.6148,-5.6273,-5.6098,-5.6098,-5.6127,-5.6409,-5.6438,-5.6462,-5.6249,-5.6253,-5.6256,-5.6405,0,-5.5796,-5.5925,-5.5907,-5.603,-5.6087,-5.604,-5.6104,-5.6129,-5.6131,-5.6178,-5.6179,-5.6234,-5.6179,-5.6194,-5.6245,-5.6247,-5.6328,-5.6236,-5.6302,-5.6304,-5.6292,-5.6488,-5.652,-5.666,-5.6424,-5.6428,-5.643,0,-5.599,-5.6031,-5.6159,-5.618,-5.6203,-5.6261,-5.6305,-5.6352,-5.6379,-5.6376,-5.6406,-5.6379,-5.6451,-5.6379,-5.6477,-5.6415,-5.6441,-5.6446,-5.6451,-5.6454,-5.6373,-5.6493,-5.6705,-5.6724,-5.646,-5.6458,-5.6456,0,-5.6127,-5.6214,-5.6301,-5.632,-5.6347,-5.6388,-5.6401,-5.6424,-5.6455,-5.6493,-5.6512,-5.6558,-5.6583,-5.6618,-5.6604,-5.6553,-5.6704,-5.6631,-5.6701,-5.6701,-5.6732,-5.673,-5.6948,-5.6755,-5.6754,-5.6754,-5.6754,0,-5.6297,-5.6377,-5.6363,-5.6416,-5.6503,-5.6483,-5.657,-5.6577,-5.6598,-5.665,-5.6614,-5.6664,-5.6643,-5.6692,-5.6681,-5.6762,-5.6774,-5.6772,-5.6768,-5.6774,-5.6774,-5.6788,-5.6777,-5.676,-5.6758,-5.6757,-5.6756,0,-5.6463,-5.6457,-5.6549,-5.6567,-5.6574,-5.6637,-5.6652,-5.6701,-5.67,-5.6767,-5.6782,-5.6779,-5.6834,-5.6824,-5.6886,-5.6878,-5.6979,-5.6964,-5.6969,-5.6965,-5.7034,-5.7026,-5.7266,-5.7295,-5.7087,-5.7089,-5.709,0,-5.657,-5.663,-5.6655,-5.6688,-5.6704,-5.6758,-5.6789,-5.6772,-5.6805,-5.684,-5.6885,-5.6937,-5.6977,-5.7067,-5.707,-5.7116,-5.71,-5.7181,-5.7106,-5.711,-5.7097,-5.7093,-5.7097,-5.7195,-5.7197,-5.7199,-5.7201,0,-5.676,-5.6754,-5.6801,-5.6847,-5.6885,-5.692,-5.6951,-5.698,-5.6964,-5.7004,-5.706,-5.7091,-5.7154,-5.7205,-5.7248,-5.7259,-5.7227,-5.7225,-5.7242,-5.7247,-5.7247,-5.7245,-5.7006,-5.7218,-5.7217,-5.7215,-5.7214,-5.7214,-5.6898,-5.6948,-5.6973,-5.7026,-5.7048,-5.7077,-5.7124,-5.7129,-5.7176,-5.7225,-5.7212,-5.7275,-5.7299,-5.7353,-5.737,-5.7418,-5.7388,-5.7415,-5.7421,-5.7427,-5.7434,-5.7242,-5.7426,-5.7426,-5.7425,-5.7425,-5.7425,0,-5.7083,-5.7097,-5.7146,-5.7191,-5.7232,-5.72,-5.7232,-5.7268,-5.7324,-5.735,-5.7391,-5.7454,-5.7504,-5.7511,-5.7557,-5.7594,-5.758,-5.7606,-5.7602,-5.7605,-5.746,-5.7438,-5.7617,-5.7617,-5.7617,-5.7617,-5.7617,-5.7617,-5.7184,-5.7267,-5.7264,-5.7357,-5.7369,-5.7431,-5.7452,-5.7479,-5.7499,-5.7572,-5.7613,-5.7618,-5.7636,-5.7683,-5.7726,-5.7727,-5.7744,-5.7776,-5.777,-5.7634,-5.7615,-5.7597,-5.7576,-5.7781,-5.7781,-5.791,-5.7912,-5.7913]},{"header":{"parameterUnit":"m.s-1","parameterCategory":1,"la1":30.2991,"la2":30.254,"lo1":-89.0895,"lo2":-89.0444,"dy":0.0017,"dx":0.0017,"nx":28,"ny":28,"refTime":"2025-04-19T09:00:00:Z","depth":0,"parameterNumber":3,"parameterNumberName":"V-component_of_WINDS"},"data":[0,0,0,0,0,0,0,0,0,0,0,0,0,0,0,0,0,0,0,0,0,0,0,0,0,0,0,0,0,0,0,0,0,0,0,0,0,0,0,0,0,0,0,0,0,0,0,0,0,0,0,0,0,0,0,0,0,0,3.4174,3.4175,0,3.4271,3.4272,3.4273,3.4268,3.4267,3.4265,3.4264,3.4359,3.4363,3.4366,0,0,0,0,0,0,0,0,0,0,0,0,0,3.3985,3.3988,3.4174,3.4175,3.4177,3.427,3.4272,3.4273,3.4268,3.4267,3.4265,3.4264,3.4358,3.4362,3.4367,0,0,0,0,0,0,0,0,0,0,0,0,0,3.4073,3.3989,3.4174,3.4186,3.4188,3.427,3.4272,3.4273,3.4269,3.4267,3.4265,3.4263,3.4356,3.4362,3.4367,3.4443,0,0,3.4385,3.4387,0,0,0,0,0,0,0,0,3.4068,3.4079,3.4183,3.4185,3.4188,3.4255,3.424,3.433,3.4269,3.4238,3.4264,3.4262,3.4326,3.4334,3.4356,3.4447,3.4451,3.4385,3.4389,3.4391,3.4393,0,0,0,0,0,0,0,3.4062,3.4075,3.4212,3.4184,3.4187,3.4186,3.4196,3.4257,3.4292,3.424,3.424,3.4252,3.4327,3.4351,3.4358,3.4453,3.4385,3.439,3.4393,3.4396,3.4614,3.4616,0,0,0,0,0,0,3.4053,3.407,3.4209,3.4215,3.4121,3.4191,3.4202,3.4236,3.4291,3.4298,3.4254,3.4252,3.4342,3.4352,3.4362,3.4456,3.4391,3.4396,3.44,3.4611,3.4614,3.4617,0,0,0,0,0,0,3.4049,3.4066,3.4205,3.4143,3.416,3.4196,3.4234,3.4239,3.4263,3.4301,3.4307,3.4272,3.4341,3.4354,3.4424,3.4459,3.4399,3.4404,3.4608,3.4612,3.4615,3.4643,0,0,0,0,0,0,3.4044,3.4064,3.4094,3.4144,3.4164,3.4266,3.4236,3.4242,3.4273,3.4271,3.432,3.4326,3.434,3.4415,3.4429,3.4466,3.4408,3.4605,3.461,3.4614,3.4639,3.4647,3.4654,0,0,0,0,0,3.4037,3.4096,3.4095,3.4112,3.4201,3.4268,3.428,3.4296,3.4276,3.4306,3.4331,3.4325,3.4453,3.4422,3.4438,3.4477,3.4603,3.4609,3.4614,3.4636,3.4646,3.4654,0,0,0,0,0,0,3.4047,3.4103,3.4102,3.4179,3.4219,3.4267,3.4305,3.4305,3.435,3.4346,3.4363,3.4375,3.4445,3.4468,3.4433,3.4554,3.4525,3.4534,3.4537,3.4546,3.4554,3.4546,3.4413,0,0,0,0,0,3.4059,3.4109,3.4155,3.4218,3.4239,3.4269,3.4298,3.4308,3.4349,3.4365,3.4396,3.4435,3.4485,3.4517,3.4564,3.4643,3.4654,3.4677,3.4685,3.469,3.4698,3.4743,3.4754,3.4634,3.4634,3.4634,0,0,3.4082,3.4119,3.4149,3.4222,3.4253,3.4305,3.4283,3.4337,3.4376,3.4373,3.4442,3.4466,3.4511,3.4587,3.4621,3.4608,3.4734,3.4697,3.4702,3.4706,3.475,3.4761,3.4771,3.4638,3.4637,3.4637,0,0,3.4152,3.4185,3.4243,3.4276,3.4326,3.4346,3.436,3.4409,3.4425,3.4495,3.4494,3.454,3.4624,3.4658,3.4685,3.4771,3.4768,3.4786,3.4825,3.4868,3.4878,3.4886,3.4918,3.4929,3.4793,3.4793,3.4793,0,3.4175,3.4254,3.4272,3.4328,3.436,3.4363,3.4422,3.4453,3.4515,3.4537,3.4521,3.4629,3.466,3.4744,3.4765,3.4787,3.4804,3.478,3.4875,3.4884,3.4892,3.4922,3.4934,3.4795,3.4795,3.4795,3.4795,0,3.428,3.4335,3.4375,3.4438,3.4474,3.4531,3.4558,3.4593,3.46,3.4622,3.4694,3.4731,3.4787,3.4808,3.4814,3.4893,3.4884,3.4872,3.4843,3.4905,3.4934,3.4946,3.4798,3.4797,3.4797,3.4796,0,0,3.4357,3.4431,3.4446,3.4475,3.4531,3.4574,3.4632,3.4688,3.4719,3.4762,3.4811,3.4884,3.4874,3.4906,3.4916,3.4955,3.5022,3.4938,3.4939,3.4953,3.5114,3.5123,3.5136,3.5021,3.5023,3.5025,3.511,0,3.4433,3.4537,3.4557,3.4647,3.4698,3.4703,3.4753,3.4793,3.4816,3.4863,3.4887,3.4939,3.4921,3.4941,3.4979,3.5006,3.5055,3.5,3.5066,3.5069,3.5055,3.5151,3.516,3.5239,3.5121,3.5123,3.5125,0,3.4535,3.4584,3.468,3.4732,3.4755,3.48,3.4855,3.4899,3.4945,3.4959,3.4996,3.5003,3.5063,3.5033,3.5117,3.5079,3.5108,3.5125,3.5129,3.5135,3.51,3.5161,3.5264,3.5276,3.5143,3.5141,3.514,0,3.4583,3.4673,3.4742,3.4767,3.4829,3.4861,3.4888,3.4933,3.4966,3.5014,3.5036,3.509,3.5119,3.516,3.5182,3.5157,3.5265,3.5235,3.5278,3.5277,3.53,3.5298,3.541,3.5318,3.5317,3.5317,3.5317,0,3.4666,3.4725,3.4765,3.4808,3.4875,3.4897,3.4962,3.4988,3.5028,3.5076,3.5082,3.5127,3.5152,3.5201,3.5218,3.5286,3.5298,3.5311,3.5315,3.5311,3.5309,3.533,3.5325,3.532,3.532,3.5319,3.5319,0,3.4731,3.476,3.4836,3.489,3.4905,3.4952,3.4997,3.5039,3.5063,3.5124,3.5139,3.5176,3.5234,3.5259,3.5329,3.5341,3.5419,3.5418,3.5404,3.5405,3.5447,3.5443,3.5575,3.5594,3.5489,3.549,3.5491,0,3.4782,3.4828,3.4888,3.4921,3.495,3.5003,3.5039,3.5063,3.5099,3.5157,3.5192,3.5251,3.5299,3.5391,3.5423,3.5478,3.5479,3.5522,3.5487,3.5482,3.5481,3.5478,3.5483,3.5528,3.5529,3.553,3.553,0,3.487,3.4883,3.4935,3.4992,3.5035,3.508,3.5125,3.5152,3.5183,3.5223,3.5284,3.5322,3.5395,3.5454,3.5511,3.5538,3.554,3.5542,3.5554,3.5551,3.5541,3.5548,3.5422,3.5538,3.5537,3.5537,3.5536,3.5536,3.493,3.4972,3.5022,3.5079,3.5116,3.5158,3.5201,3.5231,3.5283,3.5346,3.5356,3.5421,3.5468,3.5545,3.5575,3.5626,3.5615,3.5634,3.5638,3.5643,3.5646,3.5533,3.5636,3.5636,3.5636,3.5636,3.5636,0,3.502,3.5053,3.5106,3.517,3.5215,3.5215,3.5265,3.5303,3.536,3.5404,3.5453,3.5523,3.558,3.5618,3.5676,3.571,3.5712,3.5724,3.5722,3.5729,3.5651,3.5635,3.5722,3.5722,3.5722,3.5722,3.5722,3.5722,3.5072,3.5144,3.5163,3.5253,3.5285,3.535,3.5379,3.5418,3.5454,3.5533,3.5581,3.5606,3.5648,3.571,3.5763,3.5773,3.5794,3.5807,3.5816,3.5743,3.5734,3.5725,3.571,3.5811,3.5811,3.5889,3.589,3.589]}]]